User: anonymous   Login
Location: Hernandez
(10.3704°N, 67.2181°W)
Time: 15:09:15
(UTC+00:00)
Language:

COSMOS 2406 - Orbit

View from above orbital plane
View from above orbital plane
View from above satellite
View from above satellite

Ground track
Ground track

The orbit data is extracted from the following two-line orbital elements,

1 28352U 04021A   24174.22754178 -.00000068  00000-0 -11088-4 0  9999
2 28352  70.9983 174.3214 0012126 181.8882 178.2195 14.11917256 32429
Epoch (UTC): 22 June 2024 05:27:39
Eccentricity: 0.0012126
inclination: 70.9983°
perigee height: 844 km
apogee height: 861 km
right ascension of ascending node: 174.3214°
argument of perigee: 181.8882°
revolutions per day: 14.11917256
mean anomaly at epoch: 178.2195°
orbit number at epoch: 3242

The dashed part of the orbit path shows where the satellite is in the earth's shadow,  

DLR